Location: Asheville, NC
(35.6000°N, 82.5500°W)
Time: 05:21:57
(UTC-04:00)

Vanguard 1 - Pass Details

Date: 10 December 2017
Orbit: 650 x 3833 km, 34.2° (Epoch: 22 April)

Event Time Altitude Azimuth Distance (km) Brightness Sun altitude
Rises 11:39:02 0° 253° (WSW) 7,663 14.7 30.5°
Reaches altitude 10° 11:44:43 10° 253° (WSW) 6,329 14.3 30.7°
Maximum altitude 12:03:07 80° 170° (S) 2,208 12.6 31.2°
Drops below altitude 10° 12:12:46 10° 85° (E) 3,568 13.0 31.4°
Sets 12:15:04 0° 85° (E) 4,263 13.3 31.4°
